Location: Bridgewater
(44.3670°N, 64.5170°W)
Time: 03:12:58
(UTC-03:00)

Amateur Radio Satellites - All Passes

Search period start: 03 July 2015 02:42
Search period end: 04 July 2015 02:42
Location: Bridgewater, 44.3670°N, 64.5170°W

Satellite Date Start Highest point End Downlink Frequencies (MHz)
Time Altitude Azimuth
RS-15 03 Jul 02:48:39 02:58:51 51° 113° (ESE) 03:09:31 29.354- 29.394
BEESAT 03 Jul 03:03:21 03:07:33 30° 265° (W) 03:11:44 436.000
KKS-1 03 Jul 03:09:24 03:13:48 63° 73° (ENE) 03:18:13 437.445
YUBILEINY 03 Jul 03:10:37 03:17:47 31° 84° (E) 03:25:11 435.215
PCSat 03 Jul 03:11:11 03:15:26 23° 252° (WSW) 03:19:31 145.827
SWISSCUBE 03 Jul 03:19:31 03:23:05 20° 269° (W) 03:26:32 437.505
SO-50 03 Jul 03:22:55 03:27:31 38° 243° (WSW) 03:32:00 436.795
ITUPSAT 1 03 Jul 03:23:54 03:27:29 20° 269° (W) 03:30:58 437.325
Gurwin Techsat 1B 03 Jul 03:45:30 03:50:50 70° 102° (ESE) 03:56:08 435.225
AIST 1 03 Jul 03:45:42 03:50:06 81° 263° (W) 03:54:26
JAS-2 03 Jul 03:47:23 03:52:44 27° 92° (E) 03:58:45 435.910
Oscar 19 03 Jul 03:55:13 03:59:44 31° 294° (WNW) 04:04:11 437.125/150
HORYU 2 03 Jul 04:01:16 04:03:24 14° 89° (E) 04:05:45 437.375
AO-7 03 Jul 04:01:19 04:07:08 21° 89° (E) 04:13:18 29.400- 29.500
ITAMSAT 1 03 Jul 04:02:11 04:07:27 89° 289° (WNW) 04:12:41 435.822/435.867
STARS 03 Jul 04:06:06 04:10:25 54° 260° (W) 04:14:45 437.465
Cosmos 2491 03 Jul 04:29:58 04:38:01 42° 273° (W) 04:45:54 435.465 / 435.565
KKS-1 03 Jul 04:48:34 04:50:55 14° 271° (W) 04:53:04 437.445
MOZHAYETS 4 03 Jul 04:50:16 04:54:48 72° 76° (ENE) 04:59:26
Cosmos 2504 03 Jul 04:51:46 04:52:44 10° 76° (ENE) 04:54:16 435.465 / 435.565
RS-15 03 Jul 05:00:32 05:11:17 55° 318° (NW) 05:22:23 29.354- 29.394
YUBILEINY 03 Jul 05:05:34 05:14:10 61° 284° (WNW) 05:22:45 435.215
CUBESAT XI-V 03 Jul 05:14:47 05:16:56 13° 61° (ENE) 05:19:19 437.345
Gurwin Techsat 1B 03 Jul 05:26:41 05:30:20 18° 299° (WNW) 05:33:46 435.225
JAS-2 03 Jul 05:31:49 05:38:09 61° 288° (WNW) 05:45:14 435.910
HORYU 2 03 Jul 05:36:07 05:40:32 63° 287° (WNW) 05:44:57 437.375
ITAMSAT 1 03 Jul 05:43:35 05:46:16 14° 302° (WNW) 05:48:44 435.822/435.867
AO-7 03 Jul 05:52:40 06:01:06 86° 288° (WNW) 06:09:28 29.400- 29.500
PRISM 03 Jul 06:12:14 06:14:33 15° 63° (ENE) 06:17:01 437.425
CUTE-I 03 Jul 06:26:14 06:29:16 16° 88° (E) 06:32:33 437.470
MOZHAYETS 4 03 Jul 06:30:36 06:32:39 12° 273° (W) 06:34:28
Cosmos 2504 03 Jul 06:37:44 06:44:52 69° 95° (E) 06:52:01 435.465 / 435.565
CUBESAT XI-V 03 Jul 06:49:05 06:53:48 80° 258° (WSW) 06:58:33 437.345
Cubesat XI-IV 03 Jul 06:58:45 07:03:27 31° 94° (E) 07:08:12 437.490
STRAND 1 03 Jul 07:03:58 07:08:58 56° 72° (ENE) 07:14:03 437.568
YUBILEINY 03 Jul 07:09:21 07:13:24 13° 310° (NW) 07:16:55 435.215
BEESAT 3 03 Jul 07:11:17 07:12:17 11° 110° (ESE) 07:13:31 437.485
DANDE 03 Jul 07:16:54 07:18:13 11° 87° (E) 07:19:57 436.750
RS-15 03 Jul 07:17:42 07:26:57 28° 349° (N) 07:36:28 29.354- 29.394
JAS-2 03 Jul 07:19:48 07:22:21 12° 305° (NW) 07:24:38 435.910
BEESAT 2 03 Jul 07:21:05 07:22:10 11° 110° (ESE) 07:23:28 435.950
O/OREOS (USA 219) 03 Jul 07:37:41 07:40:59 21° 103° (ESE) 07:44:24 437.305
PRISM 03 Jul 07:45:28 07:49:34 57° 259° (W) 07:53:44 437.425
AO-7 03 Jul 07:46:40 07:52:55 23° 310° (NW) 07:58:54 29.400- 29.500
GONETS M04 03 Jul 07:52:29 07:54:29 11° 73° (ENE) 07:57:14
CUSAT 1 03 Jul 08:02:22 08:08:08 34° 96° (E) 08:12:47 437.405
CUTE-I 03 Jul 08:04:38 08:10:01 73° 287° (WNW) 08:15:21 437.470
BRITE-PL 03 Jul 08:23:27 08:26:38 20° 90° (E) 08:29:47 437.365/2234.400
AUBIESAT-1 03 Jul 08:25:05 08:28:12 39° 66° (ENE) 08:31:27 437.475
AIST 2 03 Jul 08:27:44 08:30:06 15° 111° (ESE) 08:32:38 435.215
Cosmos 2504 03 Jul 08:33:28 08:39:05 23° 297° (WNW) 08:44:29 435.465 / 435.565
Cubesat XI-IV 03 Jul 08:38:40 08:43:38 38° 293° (WNW) 08:48:32 437.490
VERMONT LUNAR 03 Jul 08:42:23 08:44:18 15° 156° (SSE) 08:46:15 437.305
STRAND 1 03 Jul 08:44:51 08:48:36 19° 270° (W) 08:52:13 437.568
BEESAT 3 03 Jul 08:45:37 08:49:42 79° 305° (NW) 08:53:50 437.485
DANDE 03 Jul 08:53:45 09:01:05 69° 98° (E) 09:06:44 436.750
BEESAT 2 03 Jul 08:55:34 08:59:41 79° 305° (NW) 09:03:51 435.950
M-CUBED/EXP-1 PRIME 03 Jul 08:57:44 09:01:00 62° 253° (WSW) 09:04:24 437.505
DOVE 4 03 Jul 08:58:56 09:01:38 17° 90° (E) 09:04:25 437.250
O/OREOS (USA 219) 03 Jul 09:15:56 09:20:10 41° 300° (WNW) 09:24:25 437.305
SEEDS 03 Jul 09:18:57 09:22:11 21° 92° (E) 09:25:30 437.485
RS-15 03 Jul 09:33:54 09:43:53 33° 23° (NNE) 09:54:23 29.354- 29.394
AAUSAT CUBESAT 2 03 Jul 09:33:59 09:37:09 21° 92° (E) 09:40:25 437.432
Oscar 11 03 Jul 09:40:19 09:41:36 11° 87° (E) 09:43:08 145.826/435.025
GONETS M04 03 Jul 09:41:08 09:49:42 62° 92° (E) 09:58:19
UNISAT 6 03 Jul 09:41:15 09:43:14 13° 62° (ENE) 09:45:24 437.425
ISS 03 Jul 09:44:03 09:47:16 65° 146° (SSE) 09:50:30 145.825
GOMX 1 03 Jul 09:44:08 09:48:24 87° 103° (ESE) 09:52:33 467.674
CUSAT 1 03 Jul 09:44:48 09:50:43 36° 285° (WNW) 09:55:20 437.405
HO-68 03 Jul 09:46:45 09:53:46 55° 101° (E) 10:00:47 435.675
CUTE-I 03 Jul 09:47:17 09:49:16 12° 304° (NW) 09:50:59 437.470
CINEMA 3 03 Jul 09:55:06 09:58:49 31° 96° (E) 10:02:36 145.822/145.860
COMPASS 1 03 Jul 09:58:08 10:02:12 44° 98° (E) 10:06:16 437.405
DELFI C3 03 Jul 10:01:08 10:02:53 13° 88° (E) 10:04:49 145.870
BRITE-PL 03 Jul 10:01:20 10:05:25 37° 290° (WNW) 10:09:17 437.365/2234.400
AUBIESAT-1 03 Jul 10:01:45 10:03:18 12° 265° (W) 10:04:43 437.475
CUTE 1.7 + AOD 2 03 Jul 10:03:08 10:07:26 79° 102° (ESE) 10:11:44 437.475
AIST 2 03 Jul 10:04:01 10:08:14 63° 307° (NW) 10:12:30 435.215
FUNcube-1 03 Jul 10:04:41 10:06:04 12° 88° (E) 10:07:41 145.935
CANX-2 03 Jul 10:06:16 10:10:34 87° 286° (WNW) 10:14:52 2200.000
QB50P2 03 Jul 10:06:42 10:07:38 11° 61° (ENE) 10:08:47 145.880/145.840
POPSAT HIP 1 03 Jul 10:07:52 10:08:46 11° 61° (ENE) 10:09:52 437.405
UWE-3 03 Jul 10:11:50 10:14:46 19° 91° (E) 10:17:51 435.000/436.395/437.385
PHONESAT 2.4 03 Jul 10:14:50 10:17:09 17° 155° (SSE) 10:19:30 2401.200-2431.200
VERMONT LUNAR 03 Jul 10:17:51 10:20:45 35° 171° (S) 10:23:41 437.305
ANTELSAT 03 Jul 10:23:35 10:27:27 34° 70° (ENE) 10:31:21 437.575/2403.000
BEESAT 3 03 Jul 10:26:14 10:28:23 13° 326° (NW) 10:30:26 437.485
DOVE 4 03 Jul 10:35:44 10:39:42 41° 288° (WNW) 10:43:35 437.250
BEESAT 2 03 Jul 10:36:16 10:38:28 14° 326° (NW) 10:40:34 435.950
TIGRISAT 03 Jul 10:36:22 10:40:27 45° 72° (ENE) 10:44:33 435.000
DANDE 03 Jul 10:39:13 10:44:29 22° 291° (WNW) 10:48:44 436.750
QB50P1 03 Jul 10:44:12 10:47:39 25° 67° (ENE) 10:51:10 145.935-145.965
DX 1 03 Jul 10:49:31 10:51:31 13° 89° (E) 10:53:43 434.975-435.025
CUBEBUG 2 03 Jul 10:53:10 10:57:21 66° 101° (E) 11:01:35 437.445
SEEDS 03 Jul 10:54:11 10:58:06 36° 289° (WNW) 11:02:00 437.485
Cosmos 2499 03 Jul 10:55:02 11:01:12 35° 87° (E) 11:07:34 435.465 / 435.565
NANOSAT C BR1 03 Jul 10:58:35 11:02:24 34° 70° (ENE) 11:06:16 145.865
ZACube-1 03 Jul 11:01:55 11:06:01 50° 99° (E) 11:10:11 437.345
DUCHIFAT 1 03 Jul 11:05:54 11:09:51 40° 71° (ENE) 11:13:49 145.980
POLYITAN 1 03 Jul 11:08:59 11:13:01 45° 72° (ENE) 11:17:06 437.675
AAUSAT CUBESAT 2 03 Jul 11:09:01 11:12:54 36° 289° (WNW) 11:16:44 437.432
UKube-1 03 Jul 11:11:42 11:14:58 21° 93° (E) 11:18:17 .
Oscar 11 03 Jul 11:14:01 11:18:22 72° 285° (WNW) 11:22:41 145.826/435.025
UNISAT 6 03 Jul 11:15:17 11:19:34 66° 258° (WSW) 11:23:50 437.425
AISAT 03 Jul 11:20:23 11:23:08 17° 90° (E) 11:26:01 437.250
ISS 03 Jul 11:20:57 11:23:52 29° 344° (NNW) 11:26:47 145.825
BUGSAT 1 03 Jul 11:29:11 11:33:15 48° 72° (ENE) 11:37:19 437.445
CINEMA 3 03 Jul 11:32:34 11:35:56 24° 292° (WNW) 11:39:16 145.822/145.860
HUMSAT D 03 Jul 11:32:45 11:36:46 47° 99° (E) 11:40:49 437.325/437.525
DELFI C3 03 Jul 11:34:23 11:38:24 57° 286° (WNW) 11:42:23 145.870
COMPASS 1 03 Jul 11:34:36 11:37:34 18° 295° (WNW) 11:40:27 437.405
HO-68 03 Jul 11:34:59 11:41:14 33° 299° (WNW) 11:47:21 435.675
QB50P2 03 Jul 11:38:41 11:42:57 84° 256° (WSW) 11:47:13 145.880/145.840
FUNcube-1 03 Jul 11:38:44 11:42:54 66° 285° (WNW) 11:47:07 145.935
GONETS M04 03 Jul 11:39:27 11:47:12 32° 294° (WNW) 11:54:45
POPSAT HIP 1 03 Jul 11:39:47 11:44:03 85° 257° (WSW) 11:48:19 437.405
CUTE 1.7 + AOD 2 03 Jul 11:41:13 11:42:48 12° 298° (WNW) 11:44:12 437.475
CUBEBUG 1 03 Jul 11:43:01 11:45:33 15° 89° (E) 11:48:15 437.445
AIST 2 03 Jul 11:45:49 11:47:42 12° 328° (NNW) 11:49:29 435.215
ESTCUBE 1 03 Jul 11:46:45 11:50:09 21° 92° (E) 11:53:37 437.505/2401.250
RS-15 03 Jul 11:46:56 11:58:38 76° 51° (NE) 12:10:49 29.354- 29.394
UWE-3 03 Jul 11:47:34 11:51:31 40° 288° (WNW) 11:55:30 435.000/436.395/437.385
50 SAT 03 Jul 11:48:35 11:52:10 35° 97° (E) 11:55:47 437.505
PHONESAT 2.4 03 Jul 11:51:27 11:54:41 38° 171° (S) 11:57:57 2401.200-2431.200
VERMONT LUNAR 03 Jul 11:54:28 11:57:23 36° 188° (S) 12:00:20 437.305
ANTELSAT 03 Jul 12:00:56 12:04:21 22° 267° (W) 12:07:41 437.575/2403.000
VELOX 1 03 Jul 12:09:03 12:13:22 51° 100° (E) 12:17:40 145.980
TIGRISAT 03 Jul 12:14:36 12:17:30 17° 269° (W) 12:20:15 435.000
QB50P1 03 Jul 12:19:36 12:23:25 31° 264° (W) 12:27:12 145.935-145.965
DX 1 03 Jul 12:23:56 12:28:15 62° 287° (WNW) 12:32:32 434.975-435.025
CUBEBUG 2 03 Jul 12:31:35 12:33:37 13° 297° (WNW) 12:35:28 437.445
NANOSAT C BR1 03 Jul 12:34:56 12:38:20 22° 267° (W) 12:41:39 145.865
ZACube-1 03 Jul 12:39:21 12:42:04 17° 295° (WNW) 12:44:40 437.345
DUCHIFAT 1 03 Jul 12:42:43 12:45:51 19° 268° (W) 12:48:51 145.980
POLYITAN 1 03 Jul 12:46:19 12:49:12 17° 269° (W) 12:51:57 437.675
UKube-1 03 Jul 12:47:13 12:51:16 38° 290° (WNW) 12:55:14 .
Cosmos 2499 03 Jul 12:47:35 12:54:15 43° 288° (WNW) 13:00:59 435.465 / 435.565
SPROUT 03 Jul 12:49:44 12:53:08 23° 93° (E) 12:56:36 437.525
AISAT 03 Jul 12:55:46 13:00:04 50° 288° (WNW) 13:04:18 437.250
ISS 03 Jul 12:58:17 13:00:55 22° 4° (N) 13:03:34 145.825
BUGSAT 1 03 Jul 13:06:17 13:09:01 16° 270° (W) 13:11:35 437.445
HUMSAT D 03 Jul 13:09:26 13:12:12 17° 295° (WNW) 13:14:51 437.325/437.525
CUBEBUG 1 03 Jul 13:18:02 13:22:18 52° 288° (WNW) 13:26:31 437.445
YUBILEINY 03 Jul 13:18:18 13:23:27 17° 55° (NE) 13:29:02 435.215
ESTCUBE 1 03 Jul 13:22:55 13:27:13 42° 289° (WNW) 13:31:29 437.505/2401.250
50 SAT 03 Jul 13:23:43 13:26:36 19° 293° (WNW) 13:29:23 437.505
PHONESAT 2.4 03 Jul 13:29:10 13:32:25 39° 188° (S) 13:35:41 2401.200-2431.200
Gurwin Techsat 1B 03 Jul 13:30:32 13:34:06 19° 61° (ENE) 13:37:51 435.225
VERMONT LUNAR 03 Jul 13:31:49 13:33:52 16° 204° (SSW) 13:35:54 437.305
Oscar 19 03 Jul 13:34:05 13:39:07 60° 72° (ENE) 13:44:11 437.125/150
TISAT 1 03 Jul 13:36:21 13:40:25 48° 99° (E) 13:44:28 437.305
SWISSCUBE 03 Jul 13:41:41 13:42:41 11° 86° (E) 13:43:59 437.505
ITAMSAT 1 03 Jul 13:43:52 13:47:53 24° 63° (ENE) 13:52:02 435.822/435.867
ITUPSAT 1 03 Jul 13:46:19 13:47:20 11° 86° (E) 13:48:40 437.325
VELOX 1 03 Jul 13:46:33 13:49:35 18° 296° (WNW) 13:52:28 145.980
RS-15 03 Jul 14:00:09 14:10:22 35° 253° (WSW) 14:20:32 29.354- 29.394
JAS-2 03 Jul 14:06:47 14:07:35 10° 54° (NE) 14:08:40 435.910
SPROUT 03 Jul 14:25:26 14:29:18 33° 290° (WNW) 14:33:07 437.525
ISS 03 Jul 14:34:41 14:37:51 47° 25° (NNE) 14:41:00 145.825
BEESAT 03 Jul 15:01:05 15:05:52 62° 101° (E) 15:10:37 436.000
HORYU 2 03 Jul 15:01:12 15:03:55 17° 63° (ENE) 15:06:46 437.375
KKS-1 03 Jul 15:01:43 15:02:25 10° 86° (E) 15:03:23 437.445
AO-7 03 Jul 15:01:48 15:09:07 37° 58° (ENE) 15:16:36 29.400- 29.500
PHONESAT 2.4 03 Jul 15:07:31 15:09:59 18° 204° (SSW) 15:12:26 2401.200-2431.200
Gurwin Techsat 1B 03 Jul 15:08:21 15:13:37 66° 258° (WSW) 15:18:57 435.225
TISAT 1 03 Jul 15:13:04 15:15:51 17° 296° (WNW) 15:18:30 437.305
YUBILEINY 03 Jul 15:13:24 15:22:10 75° 79° (E) 15:30:58 435.215
Oscar 19 03 Jul 15:15:23 15:18:57 18° 270° (W) 15:22:19 437.125/150
SWISSCUBE 03 Jul 15:16:28 15:21:18 87° 290° (WNW) 15:26:07 437.505
ITUPSAT 1 03 Jul 15:21:08 15:26:00 87° 285° (WNW) 15:30:50 437.325
ITAMSAT 1 03 Jul 15:22:01 15:27:06 50° 260° (W) 15:32:12 435.822/435.867
BEESAT 3 03 Jul 15:25:49 15:28:21 16° 37° (NE) 15:30:57 437.485
Cosmos 2491 03 Jul 15:35:48 15:44:09 51° 90° (E) 15:52:34 435.465 / 435.565
BEESAT 2 03 Jul 15:36:11 15:38:47 16° 37° (NE) 15:41:27 435.950
JAS-2 03 Jul 15:46:36 15:51:44 72° 73° (ENE) 15:57:09 435.910
STARS 03 Jul 15:54:34 15:58:05 24° 94° (E) 16:01:39 437.465
PCSat 03 Jul 16:10:33 16:15:26 36° 112° (ESE) 16:20:23 145.827
ISS 03 Jul 16:11:19 16:14:08 27° 221° (SW) 16:16:55 145.825
AIST 1 03 Jul 16:16:27 16:20:44 55° 95° (E) 16:25:04
Cosmos 2504 03 Jul 16:27:21 16:33:38 28° 66° (ENE) 16:40:28 435.465 / 435.565
KKS-1 03 Jul 16:35:16 16:39:43 79° 287° (WNW) 16:44:09 437.445
HORYU 2 03 Jul 16:35:50 16:40:10 55° 260° (W) 16:44:32 437.375
BEESAT 03 Jul 16:40:04 16:43:16 18° 298° (WNW) 16:46:19 436.000
MOZHAYETS 4 03 Jul 16:45:02 16:47:42 15° 88° (E) 16:50:34
AIST 2 03 Jul 16:46:24 16:49:35 20° 39° (NE) 16:52:47 435.215
AO-7 03 Jul 16:53:25 17:01:37 59° 257° (WSW) 17:09:53 29.400- 29.500
SWISSCUBE 03 Jul 16:56:33 16:58:30 12° 301° (WNW) 17:00:12 437.505
ITUPSAT 1 03 Jul 17:01:15 17:03:13 12° 301° (WNW) 17:04:57 437.325
BEESAT 3 03 Jul 17:02:46 17:06:51 78° 237° (WSW) 17:10:51 437.485
YUBILEINY 03 Jul 17:11:27 17:18:14 25° 279° (W) 17:24:42 435.215
BEESAT 2 03 Jul 17:13:17 17:17:24 77° 237° (WSW) 17:21:25 435.950
STARS 03 Jul 17:30:38 17:34:37 34° 291° (WNW) 17:38:33 437.465
Cosmos 2491 03 Jul 17:33:06 17:41:18 39° 291° (WNW) 17:49:23 435.465 / 435.565
JAS-2 03 Jul 17:34:57 17:37:44 14° 274° (W) 17:40:18 435.910
SO-50 03 Jul 17:38:11 17:42:44 49° 119° (ESE) 17:47:28 436.795
O/OREOS (USA 219) 03 Jul 17:44:41 17:49:08 55° 63° (ENE) 17:53:36 437.305
CUTE-I 03 Jul 17:49:06 17:53:43 31° 66° (ENE) 17:58:27 437.470
PCSat 03 Jul 17:53:47 17:58:50 38° 311° (NW) 18:03:54 145.827
AIST 1 03 Jul 17:56:10 17:58:51 15° 294° (WNW) 18:01:22
Cosmos 2504 03 Jul 18:20:04 18:27:39 65° 266° (W) 18:35:45 435.465 / 435.565
MOZHAYETS 4 03 Jul 18:20:48 18:25:23 59° 287° (WNW) 18:29:58
Cubesat XI-IV 03 Jul 18:22:11 18:27:26 59° 72° (ENE) 18:32:45 437.490
AIST 2 03 Jul 18:24:22 18:28:31 57° 239° (WSW) 18:32:33 435.215
HO-68 03 Jul 18:35:58 18:37:26 11° 45° (NE) 18:39:16 435.675
CUBESAT XI-V 03 Jul 18:44:50 18:48:31 23° 92° (E) 18:52:16 437.345
AO-7 03 Jul 18:55:31 18:56:33 10° 280° (W) 18:56:47 29.400- 29.500
STRAND 1 03 Jul 19:14:04 19:17:12 17° 89° (E) 19:20:32 437.568
GOMX 1 03 Jul 19:17:43 19:20:29 15° 63° (ENE) 19:23:20 467.674
SO-50 03 Jul 19:19:23 19:23:33 28° 319° (NW) 19:27:46 436.795
O/OREOS (USA 219) 03 Jul 19:25:18 19:28:10 16° 259° (W) 19:30:52 437.305
PRISM 03 Jul 19:27:01 19:29:48 17° 91° (E) 19:32:42 437.425
CUTE-I 03 Jul 19:28:43 19:33:43 38° 263° (W) 19:38:43 437.470
BRITE-PL 03 Jul 19:34:36 19:39:27 35° 70° (ENE) 19:44:07 437.365/2234.400
DANDE 03 Jul 19:35:16 19:38:01 32° 73° (ENE) 19:40:27 436.750
PCSat 03 Jul 19:42:59 19:43:57 10° 335° (NNW) 19:44:44 145.827
GONETS M04 03 Jul 19:49:34 19:57:09 33° 66° (ENE) 20:04:52
Cubesat XI-IV 03 Jul 20:04:04 20:08:00 20° 270° (W) 20:11:47 437.490
DOVE 4 03 Jul 20:05:35 20:09:29 25° 68° (ENE) 20:13:17 437.250
SEEDS 03 Jul 20:13:02 20:15:57 19° 66° (ENE) 20:19:00 437.485
HO-68 03 Jul 20:16:52 20:23:38 49° 66° (ENE) 20:30:28 435.675
Cosmos 2504 03 Jul 20:17:28 20:19:52 11° 283° (WNW) 20:21:40 435.465 / 435.565
CUSAT 1 03 Jul 20:21:26 20:23:34 21° 267° (W) 20:25:35 437.405
CUBESAT XI-V 03 Jul 20:21:44 20:26:08 40° 290° (WNW) 20:30:28 437.345
AAUSAT CUBESAT 2 03 Jul 20:26:49 20:29:37 18° 66° (ENE) 20:32:34 437.432
Oscar 11 03 Jul 20:37:11 20:38:46 12° 61° (ENE) 20:40:32 145.826/435.025
Cosmos 2499 03 Jul 20:43:28 20:47:28 15° 57° (ENE) 20:52:02 435.465 / 435.565
COMPASS 1 03 Jul 20:50:54 20:54:42 37° 71° (ENE) 20:58:35 437.405
DELFI C3 03 Jul 20:51:26 20:52:14 11° 62° (ENE) 20:53:14 145.870
STRAND 1 03 Jul 20:51:50 20:56:58 65° 288° (WNW) 21:02:02 437.568
GOMX 1 03 Jul 20:52:59 20:58:11 76° 259° (W) 21:03:03 467.674
CUTE 1.7 + AOD 2 03 Jul 20:57:21 21:01:31 68° 75° (ENE) 21:05:44 437.475
CINEMA 3 03 Jul 20:58:20 21:02:27 37° 71° (ENE) 21:06:28 145.822/145.860
CANX-2 03 Jul 21:00:31 21:04:44 82° 74° (ENE) 21:08:58 2200.000
PRISM 03 Jul 21:01:28 21:05:30 43° 289° (WNW) 21:09:28 437.425
FUNcube-1 03 Jul 21:02:37 21:04:15 12° 63° (ENE) 21:06:04 145.935
UWE-3 03 Jul 21:10:59 21:13:59 20° 66° (ENE) 21:17:04 435.000/436.395/437.385
BRITE-PL 03 Jul 21:12:58 21:17:57 34° 265° (W) 21:22:38 437.365/2234.400
AUBIESAT-1 03 Jul 21:37:24 21:41:02 28° 101° (E) 21:44:56 437.475
DOVE 4 03 Jul 21:42:32 21:47:07 38° 263° (W) 21:51:26 437.250
GONETS M04 03 Jul 21:46:05 21:54:35 59° 268° (W) 22:03:00
DX 1 03 Jul 21:46:43 21:49:19 16° 63° (ENE) 21:52:04 434.975-435.025
SEEDS 03 Jul 21:47:31 21:51:29 41° 262° (W) 21:55:29 437.485
CUBEBUG 2 03 Jul 21:52:55 21:57:11 67° 75° (ENE) 22:01:22 437.445
ZACube-1 03 Jul 21:59:29 22:03:32 48° 73° (ENE) 22:07:34 437.345
AAUSAT CUBESAT 2 03 Jul 22:01:01 22:04:57 42° 262° (W) 22:08:56 437.432
HO-68 03 Jul 22:05:05 22:11:35 35° 265° (W) 22:18:01 435.675
UKube-1 03 Jul 22:08:09 22:11:34 23° 66° (ENE) 22:15:02 .
Oscar 11 03 Jul 22:10:06 22:14:23 76° 258° (WSW) 22:18:43 145.826/435.025
M-CUBED/EXP-1 PRIME 03 Jul 22:10:22 22:14:32 73° 107° (ESE) 22:19:01 437.505
AISAT 03 Jul 22:19:45 22:22:55 20° 65° (ENE) 22:26:13 437.250
DELFI C3 03 Jul 22:22:46 22:26:46 77° 258° (WSW) 22:30:49 145.870
HUMSAT D 03 Jul 22:26:05 22:29:55 40° 71° (ENE) 22:33:47 437.325/437.525
COMPASS 1 03 Jul 22:27:25 22:30:32 20° 268° (W) 22:33:35 437.405
Cosmos 2499 03 Jul 22:34:26 22:42:12 72° 79° (E) 22:50:35 435.465 / 435.565
50 SAT 03 Jul 22:34:36 22:37:43 25° 69° (ENE) 22:40:55 437.505
FUNcube-1 03 Jul 22:35:55 22:40:07 69° 258° (WSW) 22:44:16 145.935
CINEMA 3 03 Jul 22:36:12 22:39:47 22° 267° (W) 22:43:10 145.822/145.860
CUTE 1.7 + AOD 2 03 Jul 22:36:32 22:37:59 11° 273° (W) 22:39:13 437.475
CUBEBUG 1 03 Jul 22:40:51 22:43:45 18° 64° (ENE) 22:46:45 437.445
UWE-3 03 Jul 22:46:17 22:50:19 40° 262° (W) 22:54:16 435.000/436.395/437.385
ESTCUBE 1 03 Jul 22:48:00 22:51:37 24° 66° (ENE) 22:55:19 437.505/2401.250
UNISAT 6 03 Jul 23:05:53 23:09:15 22° 93° (E) 23:12:45 437.425
VELOX 1 03 Jul 23:07:56 23:12:19 56° 73° (ENE) 23:16:43 145.980
AUBIESAT-1 03 Jul 23:12:04 23:15:44 31° 296° (WNW) 23:19:36 437.475
PCSat 03 Jul 23:14:55 23:16:33 11° 27° (NNE) 23:18:21 145.827
DX 1 03 Jul 23:20:50 23:25:10 58° 259° (W) 23:29:31 434.975-435.025
QB50P2 03 Jul 23:23:53 23:26:01 14° 89° (E) 23:28:20 145.880/145.840
POPSAT HIP 1 03 Jul 23:24:53 23:26:58 14° 89° (E) 23:29:14 437.405
CUBEBUG 2 03 Jul 23:32:49 23:34:23 11° 272° (W) 23:35:43 437.445
ZACube-1 03 Jul 23:37:35 23:40:13 16° 270° (W) 23:42:41 437.345
UKube-1 03 Jul 23:43:29 23:47:31 36° 263° (W) 23:51:32 .
SPROUT 03 Jul 23:45:37 23:49:00 23° 67° (ENE) 23:52:28 437.525
M-CUBED/EXP-1 PRIME 03 Jul 23:46:47 23:48:59 14° 301° (WNW) 23:51:06 437.505
GONETS M04 03 Jul 23:48:02 23:49:43 10° 288° (WNW) 23:50:40
ANTELSAT 03 Jul 23:49:42 23:54:03 63° 101° (E) 23:58:29 437.575/2403.000
AISAT 03 Jul 23:54:55 23:59:13 46° 261° (W) 00:03:32 437.250
TIGRISAT 04 Jul 00:02:27 00:06:49 83° 103° (ESE) 00:11:16 435.000
QB50P1 04 Jul 00:02:40 00:06:32 35° 97° (E) 00:10:25 145.935-145.965
HUMSAT D 04 Jul 00:03:01 00:05:53 18° 269° (W) 00:08:38 437.325/437.525
50 SAT 04 Jul 00:09:04 00:12:18 25° 265° (W) 00:15:30 437.505
CUBEBUG 1 04 Jul 00:15:24 00:19:44 52° 260° (W) 00:24:06 437.445
NANOSAT C BR1 04 Jul 00:17:05 00:21:11 50° 100° (E) 00:25:16 145.865
ESTCUBE 1 04 Jul 00:24:05 00:28:19 37° 263° (W) 00:32:33 437.505/2401.250
DUCHIFAT 1 04 Jul 00:24:17 00:28:26 59° 101° (E) 00:32:34 145.980
POLYITAN 1 04 Jul 00:28:15 00:32:28 69° 102° (ESE) 00:36:39 437.675
SO-50 04 Jul 00:28:29 00:31:33 16° 31° (NNE) 00:34:43 436.795
Cosmos 2499 04 Jul 00:28:42 00:34:48 25° 276° (W) 00:40:57 435.465 / 435.565
TISAT 1 04 Jul 00:29:50 00:33:52 44° 72° (ENE) 00:37:55 437.305
BEESAT 04 Jul 00:35:12 00:36:38 11° 58° (ENE) 00:38:18 436.000
UNISAT 6 04 Jul 00:42:07 00:46:10 37° 290° (WNW) 00:50:15 437.425
BUGSAT 1 04 Jul 00:45:01 00:49:05 66° 101° (ESE) 00:53:05 437.445
VELOX 1 04 Jul 00:46:32 00:49:16 15° 271° (W) 00:51:50 145.980
SWISSCUBE 04 Jul 00:48:57 00:51:54 17° 62° (ENE) 00:55:01 437.505
ITUPSAT 1 04 Jul 00:53:50 00:56:49 17° 62° (ENE) 00:59:57 437.325
PCSat 04 Jul 00:56:21 01:01:31 43° 51° (NE) 01:06:42 145.827
QB50P2 04 Jul 00:58:11 01:02:19 55° 287° (WNW) 01:06:26 145.880/145.840
POPSAT HIP 1 04 Jul 00:59:07 01:03:15 55° 287° (WNW) 01:07:22 437.405
SPROUT 04 Jul 01:20:57 01:24:56 35° 264° (W) 01:28:54 437.525
ANTELSAT 04 Jul 01:27:55 01:30:25 15° 297° (WNW) 01:32:48 437.575/2403.000
QB50P1 04 Jul 01:38:55 01:42:14 22° 293° (WNW) 01:45:27 145.935-145.965
TIGRISAT 04 Jul 01:41:29 01:43:02 11° 299° (WNW) 01:44:23 435.000
Cosmos 2491 04 Jul 01:44:17 01:51:21 27° 63° (ENE) 01:58:37 435.465 / 435.565
Oscar 19 04 Jul 01:44:56 01:48:22 18° 90° (E) 01:51:58 437.125/150
NANOSAT C BR1 04 Jul 01:53:57 01:56:40 17° 296° (WNW) 01:59:15 145.865
KKS-1 04 Jul 02:00:59 02:03:05 14° 62° (ENE) 02:05:23 437.445
DUCHIFAT 1 04 Jul 02:01:29 02:03:49 14° 297° (WNW) 02:06:01 145.980
POLYITAN 1 04 Jul 02:05:56 02:07:52 13° 298° (WNW) 02:09:38 437.675
TISAT 1 04 Jul 02:06:59 02:09:54 17° 269° (W) 02:12:41 437.305
SO-50 04 Jul 02:08:04 02:13:03 70° 53° (NE) 02:17:56 436.795
BEESAT 04 Jul 02:09:00 02:13:47 84° 74° (ENE) 02:18:37 436.000
RS-15 04 Jul 02:13:36 02:23:08 39° 109° (ESE) 02:33:09 29.354- 29.394
BUGSAT 1 04 Jul 02:22:18 02:24:04 12° 298° (WNW) 02:25:40 437.445
AIST 1 04 Jul 02:22:53 02:25:42 17° 67° (ENE) 02:28:37
YUBILEINY 04 Jul 02:24:14 02:28:56 17° 77° (ENE) 02:34:07 435.215
SWISSCUBE 04 Jul 02:24:33 02:29:18 64° 259° (WSW) 02:34:06 437.505
ITUPSAT 1 04 Jul 02:29:30 02:34:15 64° 259° (WSW) 02:39:03 437.325
